TimeEDT,TemperatureF,Dew PointF,Humidity,Sea Level PressureIn,VisibilityMPH,Wind Direction,Wind SpeedMPH,Gust SpeedMPH,PrecipitationIn,Events,Conditions,WindDirDegrees,DateUTC
12:15 AM,71.6,60.3,67,30.19,10.0,NNE,8.1,-,N/A,,Overcast,30,2013-09-17 04:15:00
12:35 AM,70.9,60.1,69,30.19,10.0,NE,9.2,-,N/A,,Overcast,50,2013-09-17 04:35:00
12:55 AM,70.2,57.0,63,30.20,10.0,NE,11.5,19.6,N/A,,Overcast,40,2013-09-17 04:55:00
1:15 AM,69.8,56.8,63,30.20,10.0,NNE,12.7,17.3,N/A,,Overcast,30,2013-09-17 05:15:00
1:35 AM,68.5,56.7,66,30.20,10.0,NE,8.1,-,N/A,,Scattered Clouds,40,2013-09-17 05:35:00
1:55 AM,68.4,57.2,67,30.20,10.0,NNE,5.8,-,N/A,,Mostly Cloudy,30,2013-09-17 05:55:00
2:15 AM,67.8,57.2,69,30.21,10.0,NNE,5.8,-,N/A,,Mostly Cloudy,30,2013-09-17 06:15:00
2:35 AM,67.3,57.4,70,30.21,10.0,NNE,6.9,-,N/A,,Mostly Cloudy,30,2013-09-17 06:35:00
2:55 AM,67.3,57.7,71,30.21,10.0,NNE,4.6,-,N/A,,Overcast,30,2013-09-17 06:55:00
3:15 AM,67.1,57.7,72,30.21,10.0,North,3.5,-,N/A,,Overcast,10,2013-09-17 07:15:00
3:35 AM,66.7,58.1,74,30.22,10.0,Calm,Calm,-,N/A,,Overcast,0,2013-09-17 07:35:00
3:55 AM,66.6,58.3,75,30.21,10.0,North,4.6,-,N/A,,Overcast,10,2013-09-17 07:55:00
4:15 AM,65.5,58.3,77,30.21,10.0,NNE,3.5,-,N/A,,Scattered Clouds,30,2013-09-17 08:15:00
4:35 AM,64.8,58.5,80,30.21,10.0,NNE,4.6,-,N/A,,Scattered Clouds,20,2013-09-17 08:35:00
4:55 AM,64.4,58.3,80,30.22,10.0,Calm,Calm,-,N/A,,Mostly Cloudy,0,2013-09-17 08:55:00
5:15 AM,63.9,57.4,79,30.22,10.0,North,3.5,-,N/A,,Scattered Clouds,360,2013-09-17 09:15:00
5:35 AM,63.5,56.8,79,30.23,10.0,North,4.6,-,N/A,,Clear,360,2013-09-17 09:35:00
5:55 AM,63.1,56.3,78,30.23,10.0,North,4.6,-,N/A,,Clear,10,2013-09-17 09:55:00
6:15 AM,62.8,56.1,79,30.24,10.0,North,3.5,-,N/A,,Clear,360,2013-09-17 10:15:00
6:35 AM,63.0,55.9,78,30.25,10.0,North,4.6,-,N/A,,Mostly Cloudy,10,2013-09-17 10:35:00
6:55 AM,63.5,55.8,76,30.25,10.0,North,5.8,-,N/A,,Overcast,10,2013-09-17 10:55:00
7:15 AM,63.5,55.8,76,30.26,10.0,North,3.5,-,N/A,,Overcast,360,2013-09-17 11:15:00
7:35 AM,63.3,55.6,76,30.27,10.0,North,5.8,-,N/A,,Scattered Clouds,10,2013-09-17 11:35:00
7:55 AM,64.4,55.8,73,30.27,10.0,NNE,6.9,-,N/A,,Scattered Clouds,30,2013-09-17 11:55:00
8:15 AM,64.8,55.4,72,30.28,10.0,NE,9.2,-,N/A,,Scattered Clouds,40,2013-09-17 12:15:00
8:35 AM,66.0,54.9,67,30.29,10.0,NE,9.2,-,N/A,,Clear,40,2013-09-17 12:35:00
8:55 AM,66.9,54.7,65,30.29,10.0,NE,11.5,16.1,N/A,,Scattered Clouds,50,2013-09-17 12:55:00
9:15 AM,68.2,55.0,63,30.29,10.0,ENE,10.4,-,N/A,,Clear,60,2013-09-17 13:15:00
9:35 AM,69.1,55.6,62,30.30,7.0,ENE,10.4,19.6,N/A,,Clear,60,2013-09-17 13:35:00
9:55 AM,70.2,55.0,59,30.30,10.0,NE,12.7,19.6,N/A,,Clear,40,2013-09-17 13:55:00
10:15 AM,71.6,54.3,54,30.30,10.0,NE,13.8,21.9,N/A,,Clear,40,2013-09-17 14:15:00
10:35 AM,72.3,54.1,53,30.31,10.0,NE,13.8,18.4,N/A,,Clear,40,2013-09-17 14:35:00
10:55 AM,73.4,53.1,49,30.31,10.0,ENE,15.0,-,N/A,,Clear,60,2013-09-17 14:55:00
11:15 AM,74.1,49.6,42,30.32,10.0,NNE,16.1,24.2,N/A,,Clear,30,2013-09-17 15:15:00
11:35 AM,74.8,48.7,40,30.31,10.0,ENE,13.8,23.0,N/A,,Clear,60,2013-09-17 15:35:00
11:55 AM,75.7,49.3,39,30.31,10.0,NE,13.8,18.4,N/A,,Clear,50,2013-09-17 15:55:00
12:15 PM,76.5,47.1,35,30.30,10.0,NE,15.0,20.7,N/A,,Clear,50,2013-09-17 16:15:00
12:35 PM,76.8,48.4,37,30.30,10.0,NNE,9.2,-,N/A,,Clear,20,2013-09-17 16:35:00
12:55 PM,77.2,46.9,34,30.30,10.0,ENE,12.7,17.3,N/A,,Scattered Clouds,60,2013-09-17 16:55:00
1:15 PM,77.5,48.6,36,30.30,10.0,NE,12.7,18.4,N/A,,Scattered Clouds,50,2013-09-17 17:15:00
1:35 PM,76.8,48.4,37,30.29,10.0,NE,13.8,19.6,N/A,,Scattered Clouds,40,2013-09-17 17:35:00
1:55 PM,76.1,47.3,36,30.29,10.0,NNE,6.9,-,N/A,,Mostly Cloudy,30,2013-09-17 17:55:00
2:15 PM,78.1,48.0,35,30.28,10.0,NE,10.4,16.1,N/A,,Scattered Clouds,50,2013-09-17 18:15:00
2:35 PM,76.3,47.8,37,30.27,10.0,NNE,10.4,-,N/A,,Mostly Cloudy,30,2013-09-17 18:35:00
2:55 PM,78.8,47.7,33,30.27,10.0,NE,10.4,16.1,N/A,,Scattered Clouds,50,2013-09-17 18:55:00
3:15 PM,77.2,48.7,37,30.26,10.0,NNE,8.1,-,N/A,,Scattered Clouds,20,2013-09-17 19:15:00
3:35 PM,77.4,48.2,36,30.26,10.0,ENE,8.1,-,N/A,,Scattered Clouds,60,2013-09-17 19:35:00
3:55 PM,77.0,49.5,38,30.25,10.0,NNE,9.2,-,N/A,,Mostly Cloudy,30,2013-09-17 19:55:00
4:15 PM,77.5,49.5,37,30.25,10.0,East,6.9,-,N/A,,Mostly Cloudy,90,2013-09-17 20:15:00
4:35 PM,77.7,49.8,37,30.25,10.0,NNE,4.6,-,N/A,,Scattered Clouds,20,2013-09-17 20:35:00
4:55 PM,77.0,49.8,38,30.24,10.0,ENE,10.4,-,N/A,,Scattered Clouds,70,2013-09-17 20:55:00
5:15 PM,78.3,49.1,36,30.25,10.0,ENE,8.1,-,N/A,,Scattered Clouds,60,2013-09-17 21:15:00
5:35 PM,78.1,48.7,36,30.24,10.0,NE,12.7,18.4,N/A,,Scattered Clouds,50,2013-09-17 21:35:00
5:55 PM,75.7,48.2,38,30.24,10.0,ENE,8.1,-,N/A,,Mostly Cloudy,60,2013-09-17 21:55:00
6:15 PM,74.5,50.2,42,30.24,10.0,NNE,4.6,-,N/A,,Scattered Clouds,30,2013-09-17 22:15:00
6:35 PM,74.8,49.8,41,30.25,10.0,NE,6.9,-,N/A,,Mostly Cloudy,50,2013-09-17 22:35:00
6:55 PM,72.1,50.4,46,30.24,10.0,NE,5.8,-,N/A,,Scattered Clouds,40,2013-09-17 22:55:00
7:15 PM,70.3,51.6,51,30.24,10.0,NE,5.8,-,N/A,,Clear,40,2013-09-17 23:15:00
7:35 PM,69.1,51.8,54,30.25,10.0,NNE,3.5,-,N/A,,Clear,30,2013-09-17 23:35:00
7:55 PM,68.2,52.0,56,30.25,10.0,NNE,5.8,-,N/A,,Clear,30,2013-09-17 23:55:00
8:15 PM,67.6,52.2,58,30.25,10.0,NE,5.8,-,N/A,,Clear,40,2013-09-18 00:15:00
8:35 PM,67.1,52.0,58,30.25,10.0,NNE,6.9,-,N/A,,Clear,30,2013-09-18 00:35:00
8:55 PM,66.4,52.2,60,30.26,10.0,NE,5.8,-,N/A,,Clear,40,2013-09-18 00:55:00
9:15 PM,65.1,52.7,64,30.26,10.0,NNE,5.8,-,N/A,,Clear,30,2013-09-18 01:15:00
9:35 PM,64.8,52.9,65,30.27,10.0,NE,8.1,-,N/A,,Clear,50,2013-09-18 01:35:00
9:55 PM,64.6,52.7,65,30.28,10.0,ENE,9.2,-,N/A,,Clear,60,2013-09-18 01:55:00
10:15 PM,65.1,51.8,62,30.28,10.0,NE,8.1,-,N/A,,Clear,50,2013-09-18 02:15:00
10:35 PM,64.4,52.2,64,30.29,10.0,ENE,8.1,-,N/A,,Clear,60,2013-09-18 02:35:00
10:55 PM,64.0,51.8,64,30.29,10.0,ENE,6.9,-,N/A,,Clear,60,2013-09-18 02:55:00
11:15 PM,63.1,51.8,66,30.30,10.0,NE,5.8,-,N/A,,Clear,50,2013-09-18 03:15:00
11:35 PM,62.6,51.8,68,30.30,10.0,NE,5.8,-,N/A,,Clear,50,2013-09-18 03:35:00
11:55 PM,61.9,51.8,69,30.30,10.0,ENE,6.9,-,N/A,,Clear,60,2013-09-18 03:55:00